Ely, MN

8:10 PM CDT on September 29, 2016 (GMT -0500)
Ely Municipal

Weather History for KELO - April, 2015

Change the Weather History Date:

Friday, April 10, 2015

  Actual Average Record
Temperature  
Mean Temperature 34 °F -  
Max Temperature 46 °F 44 °F 68 °F (2003)
Min Temperature 21 °F 24 °F 5 °F (1997)
Degree Days  
Heating Degree Days 32    
Moisture  
Dew Point 24 °F    
Average Humidity 74    
Maximum Humidity 100    
Minimum Humidity 34    
Precipitation  
Precipitation 0.00 in - - ()
Sea Level Pressure  
Sea Level Pressure 29.85 in    
Wind  
Wind Speed 2 mph (NNW)    
Max Wind Speed 14 mph    
Max Gust Speed 22 mph    
Visibility 10 miles    
Events      
Averages and records for this station are not official NWS values.
T = Trace of Precipitation, MM = Missing Value Source: NWS Daily Summary

Daily Weather History Graph

Daily Weather History Graph

Search for Another Location

Airport or City:

Trip Planner

Search our weather history database for the weather conditions in past years. The results will help you decide how hot, cold, wet, or windy it might be!

Date:

Astronomy

Apr. 10, 2015 Rise Set
Actual Time 6:28 AM CDT 7:49 PM CDT
Civil Twilight 5:56 AM CDT 8:22 PM CDT
Nautical Twilight 5:17 AM CDT 9:00 PM CDT
Astronomical Twilight 4:36 AM CDT 9:42 PM CDT
Moon 1:05 AM CDT (4/10) 10:33 AM CDT (4/10)
Length of Visible Light 14h 25m
Length of Day
13h 21m
Waning Gibbous, 66% of the Moon is Illuminated
Apr 10
Waning Gibbous
Apr 11
Last Quarter
Apr 18
New
Apr 25
First Quarter
May 3
Full

Hourly Weather History & Observations

Time (CDT) Temp. Windchill Dew Point Humidity Pressure Visibility Wind Dir Wind Speed Gust Speed Precip Events Conditions
12:13 AM 26.6 °F - 26.6 °F 100% 29.70 in 10.0 mi Calm Calm - N/A   Clear
12:33 AM 26.6 °F - 26.6 °F 100% 29.70 in 10.0 mi Calm Calm - N/A   Clear
12:52 AM 26.6 °F - 24.8 °F 93% 29.70 in 10.0 mi Calm Calm - N/A   Clear
1:13 AM 24.8 °F - 24.8 °F 100% 29.70 in 10.0 mi Calm Calm - N/A   Clear
1:33 AM 24.8 °F - 24.8 °F 100% 29.69 in 10.0 mi Calm Calm - N/A   Clear
1:53 AM 24.8 °F - 23.0 °F 93% 29.70 in 10.0 mi Calm Calm - N/A   Clear
2:13 AM 24.8 °F - 24.8 °F 100% 29.70 in 10.0 mi Calm Calm - N/A   Clear
2:33 AM 24.8 °F - 24.8 °F 100% 29.70 in 10.0 mi Calm Calm - N/A   Clear
2:53 AM 23.0 °F - 21.2 °F 93% 29.70 in 10.0 mi Calm Calm - N/A   Clear
3:13 AM 21.2 °F - 21.2 °F 100% 29.70 in 10.0 mi Calm Calm - N/A   Clear
3:32 AM 21.2 °F - 21.2 °F 100% 29.70 in 10.0 mi Calm Calm - N/A   Clear
3:53 AM 21.2 °F - 21.2 °F 100% 29.71 in 10.0 mi Calm Calm - N/A   Clear
4:13 AM 21.2 °F - 21.2 °F 100% 29.71 in 10.0 mi Calm Calm - N/A   Clear
4:33 AM 21.2 °F - 19.4 °F 93% 29.72 in 10.0 mi Calm Calm - N/A   Clear
4:53 AM 21.2 °F - 21.2 °F 100% 29.72 in 10.0 mi Calm Calm - N/A   Clear
5:13 AM 24.8 °F - 24.8 °F 100% 29.73 in 10.0 mi Calm Calm - N/A   Clear
5:33 AM 26.6 °F - 24.8 °F 93% 29.73 in 10.0 mi Calm Calm - N/A   Clear
5:53 AM 26.6 °F - 26.6 °F 100% 29.74 in 10.0 mi Calm Calm - N/A   Clear
6:13 AM 26.6 °F - 24.8 °F 93% 29.75 in 7.0 mi Calm Calm - N/A   Clear
6:33 AM 24.8 °F - 23.0 °F 93% 29.75 in 10.0 mi Calm Calm - N/A   Clear
6:53 AM 24.8 °F - 24.8 °F 100% 29.76 in 10.0 mi Calm Calm - N/A   Mostly Cloudy
7:13 AM 24.8 °F - 23.0 °F 93% 29.77 in 10.0 mi Calm Calm - N/A   Scattered Clouds
7:33 AM 26.6 °F - 24.8 °F 93% 29.77 in 10.0 mi Calm Calm - N/A   Scattered Clouds
7:52 AM 28.4 °F - 28.4 °F 100% 29.78 in 10.0 mi Calm Calm - N/A   Mostly Cloudy
8:11 AM 30.2 °F 26.7 °F 30.2 °F 100% 29.78 in 10.0 mi NW 3.5 mph - N/A   Overcast
8:33 AM 33.8 °F 29.6 °F 30.2 °F 87% 29.78 in 10.0 mi NNW 4.6 mph - N/A   Overcast
8:53 AM 33.8 °F 28.6 °F 32.0 °F 93% 29.79 in 10.0 mi NW 5.8 mph - N/A   Overcast
9:12 AM 35.6 °F 30.7 °F 30.2 °F 81% 29.80 in 10.0 mi NW 5.8 mph - N/A   Mostly Cloudy
9:33 AM 35.6 °F - 30.2 °F 81% 29.81 in 10.0 mi Calm Calm - N/A   Scattered Clouds
9:53 AM 37.4 °F 33.8 °F 30.2 °F 75% 29.81 in 10.0 mi North 4.6 mph - N/A   Scattered Clouds
10:12 AM 39.2 °F 35.9 °F 30.2 °F 70% 29.82 in 10.0 mi NNW 4.6 mph - N/A   Scattered Clouds
10:33 AM 39.2 °F 35.0 °F 30.2 °F 70% 29.83 in 10.0 mi North 5.8 mph - N/A   Clear
10:53 AM 39.2 °F 33.6 °F 30.2 °F 70% 29.85 in 10.0 mi North 8.1 mph - N/A   Mostly Cloudy
11:12 AM 37.4 °F 31.4 °F 30.2 °F 75% 29.86 in 10.0 mi North 8.1 mph - N/A   Overcast
11:33 AM 37.4 °F 31.4 °F 28.4 °F 70% 29.87 in 10.0 mi North 8.1 mph 17.3 mph N/A   Mostly Cloudy
11:53 AM 35.6 °F 28.0 °F 28.4 °F 75% 29.88 in 10.0 mi NNW 10.4 mph 18.4 mph N/A   Mostly Cloudy
12:12 PM 35.6 °F 29.2 °F 28.4 °F 75% 29.89 in 10.0 mi NW 8.1 mph 19.6 mph N/A   Overcast
12:33 PM 35.6 °F 28.6 °F 28.4 °F 75% 29.90 in 10.0 mi NNW 9.2 mph 18.4 mph N/A   Overcast
12:52 PM 35.6 °F 27.5 °F 28.4 °F 75% 29.90 in 10.0 mi NNW 11.5 mph 21.9 mph N/A   Overcast
1:13 PM 35.6 °F 29.2 °F 28.4 °F 75% 29.91 in 10.0 mi NW 8.1 mph 17.3 mph N/A   Overcast
1:33 PM 35.6 °F 28.0 °F 28.4 °F 75% 29.92 in 10.0 mi NW 10.4 mph 18.4 mph N/A   Overcast
1:53 PM 35.6 °F 28.0 °F 28.4 °F 75% 29.92 in 10.0 mi NNW 10.4 mph 19.6 mph N/A   Overcast
2:13 PM 39.2 °F 35.0 °F 28.4 °F 65% 29.92 in 10.0 mi NNW 5.8 mph 9.2 mph N/A   Mostly Cloudy
2:33 PM 39.2 °F 32.0 °F 28.4 °F 65% 29.92 in 10.0 mi WNW 11.5 mph 16.1 mph N/A   Mostly Cloudy
2:53 PM 39.2 °F 34.2 °F 26.6 °F 61% 29.92 in 10.0 mi NW 6.9 mph - N/A   Overcast
3:12 PM 42.8 °F 38.6 °F 24.8 °F 49% 29.92 in 10.0 mi NW 6.9 mph - N/A   Overcast
3:33 PM 42.8 °F 37.5 °F 24.8 °F 49% 29.92 in 10.0 mi NNW 9.2 mph - N/A   Mostly Cloudy
3:53 PM 44.6 °F 38.1 °F 23.0 °F 43% 29.91 in 10.0 mi WNW 13.8 mph 18.4 mph N/A   Scattered Clouds
4:12 PM 46.4 °F 41.9 °F 23.0 °F 40% 29.91 in 10.0 mi NNW 9.2 mph - N/A   Scattered Clouds
4:33 PM 44.6 °F 41.4 °F 21.2 °F 39% 29.91 in 10.0 mi NNW 5.8 mph 19.6 mph N/A   Scattered Clouds
4:53 PM 46.4 °F 41.1 °F 21.2 °F 37% 29.91 in 10.0 mi WNW 11.5 mph 18.4 mph N/A   Clear
5:13 PM 46.4 °F 43.5 °F 19.4 °F 34% 29.91 in 10.0 mi NW 5.8 mph 19.6 mph N/A   Clear
5:33 PM 46.4 °F 41.9 °F 19.4 °F 34% 29.92 in 10.0 mi NW 9.2 mph 17.3 mph N/A   Clear
5:52 PM 46.4 °F 41.1 °F 19.4 °F 34% 29.92 in 10.0 mi NW 11.5 mph - N/A   Clear
6:13 PM 46.4 °F 43.5 °F 19.4 °F 34% 29.93 in 10.0 mi NNW 5.8 mph - N/A   Clear
6:32 PM 44.6 °F 41.4 °F 17.6 °F 34% 29.93 in 10.0 mi NNW 5.8 mph - N/A   Clear
6:53 PM 44.6 °F 42.2 °F 17.6 °F 34% 29.94 in 10.0 mi NNW 4.6 mph - N/A   Clear
7:13 PM 44.6 °F 40.7 °F 17.6 °F 34% 29.94 in 10.0 mi NW 6.9 mph - N/A   Clear
7:32 PM 42.8 °F 40.1 °F 17.6 °F 36% 29.94 in 10.0 mi NW 4.6 mph - N/A   Clear
7:53 PM 41.0 °F - 17.6 °F 39% 29.95 in 10.0 mi Calm Calm - N/A   Clear
8:13 PM 39.2 °F - 19.4 °F 45% 29.95 in 10.0 mi Calm Calm - N/A   Clear
8:33 PM 35.6 °F - 19.4 °F 52% 29.96 in 10.0 mi Calm Calm - N/A   Clear
8:53 PM 32.0 °F - 19.4 °F 60% 29.97 in 10.0 mi Calm Calm - N/A   Clear
9:33 PM 28.4 °F - 19.4 °F 69% 29.98 in 10.0 mi Calm Calm - N/A   Clear
9:53 PM 28.4 °F - 19.4 °F 69% 29.99 in 10.0 mi Calm Calm - N/A   Clear
10:13 PM 28.4 °F - 21.2 °F 74% 29.99 in 10.0 mi Calm Calm - N/A   Clear
10:33 PM 28.4 °F - 21.2 °F 74% 29.99 in 10.0 mi Calm Calm - N/A   Clear
10:53 PM 28.4 °F - 21.2 °F 74% 30.00 in 10.0 mi Calm Calm - N/A   Clear
11:13 PM 26.6 °F - 21.2 °F 80% 30.00 in 10.0 mi Calm Calm - N/A   Clear
11:33 PM 26.6 °F - 21.2 °F 80% 30.00 in 10.0 mi Calm Calm - N/A   Clear
11:53 PM 26.6 °F - 21.2 °F 80% 30.01 in 10.0 mi Calm Calm - N/A   Clear